Miscellaneous Local Product
Issued by NWS Hastings, NE

Home | Current Version | Previous Version | Text Only | Print | Product List | Glossary Off
Versions: 1 2 3 4 5 6 7 8 9 10 11 12 13 14 15 16 17 18 19 20 21 22 23 24 25 26 27 28 29 30 31 32 33 34 35 36 37 38 39 40 41 42 43 44 45 46 47 48 49 50

442
AXUS43 KGID 261202
MISGRI

GID CWA HOURLY WEATHER ROUNDUP
NATIONAL WEATHER SERVICE HASTINGS NE
700 AM CDT THU MAY 26 2016

NOTE: "FAIR" INDICATES FEW OR NO CLOUDS BELOW 12,000 FEET WITH NO
SIGNIFICANT WEATHER AND/OR OBSTRUCTIONS TO VISIBILITY.

...SOUTH CENTRAL NEBRASKA...

CITY           SKY/WX    TMP DP  RH WIND       PRES   REMARKS
GRAND ISLAND   PTCLDY    55  53  93 CALM      29.89S
HASTINGS       PTCLDY    53  51  93 N3        29.89R
KEARNEY        MOCLDY    54  50  87 CALM      29.90R
ORD            PTCLDY    53  51  93 NW7       29.89R
YORK           CLEAR     55  54  94 SE3       29.89S
AURORA         MOCLDY    55  54  97 CALM      29.88S
LEXINGTON      CLOUDY    54  52  94 NW5       29.91R
HOLDREGE       PTCLDY    51  49  90 CALM      29.88F
HEBRON         CLEAR     54  53  96 CALM      29.88R

...NEBRASKA PANHANDLE...

CITY           SKY/WX    TMP DP  RH WIND       PRES   REMARKS
CHADRON        CLEAR     40  37  89 S6        29.92R
ALLIANCE       CLEAR     36  35  96 W6        29.93R WCI  31
SCOTTSBLUFF    CLEAR     43  39  86 NW7       29.95R
SIDNEY         CLOUDY    47  42  83 W7        29.98R

...WESTERN AND NORTH CENTRAL NEBRASKA...

CITY           SKY/WX    TMP DP  RH WIND       PRES   REMARKS
VALENTINE      PTCLDY    47  44  90 W6        29.89F
AINSWORTH      CLOUDY    51  49  93 CALM      29.89S
ONEILL         PTCLDY    53  50  92 CALM      29.90R
BROKEN BOW     PTCLDY    54  50  86 CALM      29.90S
IMPERIAL       CLOUDY    53  49  86 CALM      29.91F
NORTH PLATTE   PTCLDY    52  51  97 S8        29.90F THUNDER
MCCOOK         CLOUDY    51  49  92 W3        29.91S

...EASTERN NEBRASKA...

CITY           SKY/WX    TMP DP  RH WIND       PRES   REMARKS
NORFOLK        CLEAR     56  53  90 W5        29.90R
SO SIOUX CITY  SUNNY     59  56  89 CALM      29.88R
TEKAMAH        SUNNY     58  56  93 SW5       29.89R
COLUMBUS       CLEAR     55  48  76 CALM      29.90S
ALBION         CLOUDY    56  52  86 CALM      29.90S
OMAHA EPPLEY   MOSUNNY   60  56  86 CALM      29.88R
OFFUTT AFB     SUNNY     58  58 100 CALM      29.87R
MILLARD        CLEAR     57  56  94 CALM      29.88S
LINCOLN        CLEAR     59  56  89 NW5       29.90R
NEBRASKA CITY  CLEAR     63  60  89 SE6       29.87F
BEATRICE       CLEAR     61  57  86 E7        29.86F
FALLS CITY     CLEAR     66  61  84 CALM      29.87S

...NORTHERN KANSAS...

CITY           SKY/WX    TMP DP  RH WIND       PRES   REMARKS
GOODLAND       CLEAR     51  46  83 NE6       29.89F
HILL CITY      CLOUDY    56  51  84 N15       29.86R
NORTON         SUNNY     54  46  76 NW7       29.88S
PHILLIPSBURG   CLEAR     52  52 100 NW5       29.86S
SMITH CENTER   CLEAR     55  52  88 NE6       29.86S
BELOIT         MOCLDY    57  54  88 NE12      29.86R
HAYS           CLOUDY    54  50  87 NE8       29.83R
RUSSELL        PTCLDY    58  56  93 NE9       29.82R
CONCORDIA      MOCLDY    60  55  83 E7        29.88R
SALINA         PTCLDY    65  62  90 N9        29.83R
TOPEKA           N/A     68  62  81 E3        29.87S



USA.gov is the U.S. government's official web portal to all federal, state and local government web resources and services.